RH
38 39 38 38 39 43 43 41 40 36 32 32 35 32 32 32 31 31 32 31 31 32 32 35 36 36 35 38 38 39 40 40 39 39 40 37 37 39 38 33 30 30 37 33 31 30 20
44 48 46 40 40 39 38 40 44 46 39 35 34 34 36 37 37 38 35 38 37 36 39 41 39 42 42 43 45 45 45 42 45 48 49 45 40 41 42 39 36 32 28 34 29 27 31
44 44 45 45 48 43 45 51 54 53 48 46 42 42 42 41 43 46 45 42 44 45 45 46 45 45 52 52 54 54 52 50 47 47 46 43 41 41 41 41 40 41 35 33 30 27 25
51 51 43 40 51 48 49 50 48 51 57 59 54 52 51 53 48 51 56 49 47 51 54 58 57 54 54 59 60 59 59 57 50 50 56 53 48 44 43 42 40 44 46 44 37 34 31
58 57 62 50 49 47 51 51 50 51 57 61 60 59 60 64 63 61 61 65 64 60 64 66 72 71 62 67 67 66 66 69 70 69 59 63 56 51 44 45 43 43 42 49 46 40 36
94 74 78 56 55 53 56 58 59 58 60 63 67 65 61 64 70 76 69 69 80 82 86 82 80 88 90 76 80 79 70 70 76 68 65 64 64 60 50 48 47 46 45 46 47 46 44
91 78 75 63 63 61 66 70 65 61 62 69 72 78 73 69 65 77 86 84 88 80 97 98 98 94 100 100 95 88 83 87 82 70 73 65 73 67 63 56 52 52 50 50 47 52 50
66 69 66 71 71 73 78 79 77 76 67 66 63 80 76 68 73 72 84 95 92 98 96 100 99 96 85 100 100 98 87 87 94 82 68 65 81 68 71 64 59 58 55 57 54 51 54
64 66 64 80 81 86 89 84 79 84 71 70 76 68 66 64 66 69 78 84 85 94 100 100 100 100 100 94 100 100 97 93 91 86 70 64 86 77 79 76 71 67 70 64 66 57 57
58 57 61 74 82 88 89 81 79 90 90 77 78 79 73 74 69 64 65 61 69 93 100 100 100 100 100 88 100 100 100 93 99 85 72 67 96 79 86 81 72 72 70 77 75 63 52
51 52 58 64 68 76 84 92 78 77 90 84 84 86 88 79 80 78 73 74 74 90 100 100 100 92 75 84 96 93 94 85 92 87 81 66 96 79 88 84 77 78 76 76 74 70 58
45 48 52 58 74 72 72 97 99 99 92 90 82 89 95 93 96 92 98 100 91 97 96 100 100 89 86 86 91 95 83 81 92 92 78 74 93 78 83 78 81 82 70 75 60 57 70
48 56 59 65 61 64 66 80 100 100 100 100 100 97 99 96 84 84 100 100 96 99 98 100 100 96 91 90 82 89 81 78 82 93 98 73 76 91 85 80 87 80 70 77 63 49 44
48 52 55 70 65 56 52 56 87 100 100 98 99 99 98 98 91 88 96 96 91 91 98 100 100 99 87 92 88 82 77 86 87 94 100 96 87 91 90 79 85 86 66 65 69 49 42
46 45 54 62 64 56 49 52 74 88 100 99 94 100 99 100 92 92 93 97 98 94 94 95 100 94 90 90 89 87 89 92 97 87 94 100 94 82 89 90 82 74 73 65 72 49 41
48 42 40 43 50 47 46 42 46 61 86 96 99 98 99 98 98 97 100 100 100 98 97 100 100 100 100 91 91 81 87 93 98 95 96 98 97 84 88 97 80 70 75 65 65 55 39
49 46 45 42 43 41 40 40 45 53 62 74 67 72 78 86 93 94 94 100 100 100 100 100 100 100 92 91 95 87 94 96 98 99 96 91 87 85 81 90 79 70 64 68 71 60 40
52 47 44 39 40 42 43 45 50 50 59 71 72 63 67 68 72 73 74 80 92 100 100 100 99 99 94 91 96 98 98 98 100 98 95 86 74 91 84 89 95 82 63 74 76 48 39
51 52 48 46 47 46 46 50 50 48 50 59 63 59 58 60 68 72 69 71 83 93 97 98 99 100 100 100 100 98 100 100 100 100 87 90 79 88 81 81 92 88 68 64 49 42 43
60 56 47 47 82 100 98 86 79 50 47 53 57 61 61 62 68 69 68 72 76 93 96 100 100 100 100 100 97 97 99 100 100 91 85 81 90 98 82 84 91 85 73 60 42 40 46
52 51 49 47 44 57 92 100 100 82 63 66 66 64 64 65 78 78 80 82 89 99 90 92 95 100 98 93 93 98 96 94 93 91 86 82 89 96 96 91 100 98 72 63 49 43 39
52 55 55 55 54 52 54 61 64 60 61 62 65 70 74 76 76 80 87 91 94 89 90 86 89 94 90 85 87 89 93 90 99 97 91 92 93 91 100 95 100 100 83 65 52 49 44
50 50 55 64 80 78 68 66 75 84 88 91 90 86 83 93 99 94 98 100 100 89 89 88 92 96 89 82 86 92 95 96 98 100 100 100 100 95 100 90 100 100 78 66 60 54 62
78 87 92 100 100 100 100 100 100 98 92 88 86 86 90 97 100 100 100 100 99 93 91 100 99 86 99 95 100 100 100 100 100 100 100 100 98 100 100 100 100 93 76 58 48 58 72
100 100 100 100 96 94 99 98 98 100 100 100 99 99 100 100 100 100 100 100 99 100 100 100 100 100 100 100 100 100 100 100 100 100 100 100 100 100 100 94 88 85 68 57 52 67 72
100 100 100 100 98 93 99 100 100 100 100 100 100 100 100 100 100 100 100 100 100 100 100 100 97 100 100 100 100 100 100 100 100 100 100 100 100 100 97 87 89 82 69 74 70 83 76
100 100 100 100 98 100 100 100 98 100 100 100 100 100 100 100 100 100 100 99 100 100 99 100 100 100 100 100 100 100 100 100 100 100 100 100 100 100 100 88 85 92 85 91 77 84 78
100 100 100 100 92 99 100 100 100 100 100 100 100 100 100 98 90 100 96 100 99 100 98 98 100 100 100 100 100 100 100 100 100 100 100 98 100 100 94 82 88 95 99 96 94 97 92
85 69 65 79 82 81 84 88 100 100 100 100 100 100 100 97 98 100 100 100 100 99 95 100 100 100 100 100 100 100 100 100 96 100 100 100 100 92 100 89 99 94 98 100 100 100 100
Wind_Speed
24 26 27 28 28 30 32 35 35 37 39 38 38 37 38 39 41 43 45 45 45 46 49 49 51 52 53 56 62 64 67 68 70 74 74 74 70 62 59 63 54 44 41 39 37 41 35
21 20 22 25 28 29 30 31 33 34 34 34 34 35 35 36 38 40 42 43 45 45 46 47 49 53 56 58 60 62 66 69 70 72 73 75 75 72 66 65 60 58 47 40 37 34 36
15 15 16 18 21 24 26 27 28 29 29 29 29 30 31 32 34 37 37 39 41 45 47 47 50 53 54 56 61 60 65 68 71 72 76 76 79 74 74 69 66 62 60 55 46 37 31
9 10 12 14 15 19 21 23 24 26 26 27 27 28 30 30 29 31 33 37 36 38 41 43 45 50 52 55 57 60 62 67 70 71 72 74 76 80 76 76 70 67 63 63 57 49 44
8 7 8 9 12 14 16 19 21 21 23 24 26 26 26 27 29 29 29 29 33 36 39 42 42 47 50 53 56 60 60 63 68 70 71 72 75 79 79 76 76 72 70 64 62 57 49
1 2 4 7 7 9 11 14 17 20 22 22 23 27 26 26 25 26 27 29 30 33 36 41 43 45 46 49 53 57 63 64 67 70 71 72 74 73 81 78 77 74 74 70 66 64 54
3 2 1 4 6 7 9 13 15 17 18 20 23 25 26 28 29 28 29 29 30 33 37 37 42 46 49 50 52 57 61 62 67 69 70 71 74 74 78 76 78 75 71 72 68 64 62
5 2 3 3 5 7 10 12 14 15 17 19 21 23 27 30 30 33 33 35 36 35 39 42 43 43 46 49 51 52 60 63 67 70 70 71 74 74 78 76 73 74 73 68 71 65 63
9 8 7 8 8 9 11 13 15 16 17 18 21 22 24 28 31 31 31 33 36 38 40 42 44 44 46 48 48 52 61 65 66 68 69 70 71 74 78 79 75 73 71 70 68 69 66
13 13 13 12 12 12 14 15 17 16 19 21 22 24 26 28 30 31 32 34 37 39 40 42 45 46 47 52 50 52 61 64 65 67 68 70 71 76 79 81 79 79 74 67 70 67 67
18 19 19 17 16 15 17 19 18 19 20 23 23 26 28 29 31 33 36 39 39 40 40 41 42 44 48 52 53 54 60 63 64 66 68 69 72 75 77 83 83 81 78 72 69 65 64
23 23 23 22 21 20 21 20 19 22 23 25 25 27 30 31 33 33 34 37 40 40 41 40 41 46 49 51 54 56 64 65 64 65 66 70 71 75 79 81 84 81 84 78 79 73 67
28 29 27 26 26 24 24 22 22 22 24 26 29 30 31 33 35 35 36 38 40 42 44 44 45 48 52 55 58 61 65 67 66 65 68 72 73 78 81 85 86 86 88 81 79 78 72
33 34 33 31 30 30 29 28 27 26 27 27 30 32 33 35 36 37 38 39 42 44 45 46 49 51 54 58 61 65 68 68 66 65 65 72 76 79 80 84 87 88 93 91 82 80 77
40 37 35 34 34 34 33 33 32 33 32 31 32 34 37 40 40 41 42 45 47 46 47 51 52 55 58 59 62 66 67 68 66 68 68 70 76 82 81 85 89 90 92 94 87 80 79
45 41 38 38 38 38 39 39 40 39 36 37 38 39 39 42 42 44 47 48 50 51 51 54 56 59 62 65 67 69 71 69 67 70 72 76 79 84 85 86 90 95 94 96 89 82 80
49 47 44 43 42 42 43 43 43 44 45 43 45 47 47 50 50 49 51 53 54 54 56 58 61 64 65 68 71 71 76 75 72 75 79 80 84 85 90 90 94 97 101 96 87 86 80
54 51 50 48 48 47 47 48 48 49 49 50 51 52 53 55 57 59 59 60 60 61 61 63 65 68 70 71 73 76 79 79 78 82 82 85 90 86 91 92 92 98 100 93 87 90 83
58 57 55 54 53 52 52 51 53 54 54 56 57 58 59 59 61 63 64 65 66 67 67 68 68 70 72 75 75 81 82 82 84 87 90 90 93 88 95 96 94 99 99 95 92 85 83
61 61 60 58 57 57 57 58 58 60 61 60 62 64 65 65 67 67 68 69 71 72 72 71 73 74 76 80 82 86 86 87 90 93 97 96 94 93 98 100 100 103 96 95 90 83 77
67 66 65 65 64 63 63 65 66 65 65 66 67 68 68 71 72 72 73 74 74 75 76 76 78 80 82 85 88 90 92 94 96 98 99 99 95 95 96 99 99 98 99 92 89 84 79
72 71 71 70 72 71 71 71 71 72 71 71 72 72 75 78 78 79 79 80 81 81 80 82 84 86 87 90 92 94 96 98 98 100 98 97 99 100 96 102 97 92 96 90 90 87 77
78 77 75 73 73 72 74 74 75 75 75 76 77 77 79 82 83 84 85 84 85 86 87 88 88 90 93 95 96 97 97 99 101 97 97 98 103 103 99 103 93 90 94 95 90 87 75
82 81 79 78 77 77 78 79 80 82 82 83 83 82 82 84 87 89 88 88 89 90 91 93 93 95 96 100 98 97 99 100 101 100 102 106 110 107 106 101 94 92 98 93 90 84 77
88 88 87 87 85 83 83 84 86 88 89 88 90 90 88 87 91 95 93 93 94 95 95 98 99 98 101 103 100 97 98 99 100 103 106 108 111 108 105 103 96 98 96 95 91 86 85
94 95 95 94 94 92 91 92 91 94 95 94 96 95 93 90 90 98 98 100 99 102 101 105 107 105 108 107 104 106 106 106 104 104 105 110 108 106 110 105 99 98 100 97 96 92 93
100 98 99 98 97 97 97 99 98 100 101 103 102 105 101 98 96 98 102 103 104 105 107 108 111 111 112 108 107 106 108 109 109 107 106 106 109 105 103 102 95 98 100 99 97 96 99
108 106 105 104 104 104 104 103 105 107 107 106 105 108 109 106 102 103 106 107 108 110 112 113 115 113 112 108 105 109 109 113 110 104 105 109 106 103 103 98 95 95 99 98 101 102 95
116 112 110 110 109 108 109 109 111 114 114 114 111 114 114 113 109 108 108 110 113 115 117 117 119 119 117 113 115 118 113 118 116 108 108 102 105 104 99 102 104 107 107 100 98 101 95
Wind_Direction
91 86 84 80 77 73 72 72 69 67 67 70 68 68 67 62 61 60 59 58 57 55 54 51 48 46 44 42 38 36 35 33 33 30 29 26 23 20 16 17 15 11 13 3 5 3 351
92 86 81 74 71 69 66 63 62 61 62 62 65 67 64 63 62 58 56 54 53 53 50 46 43 41 37 36 32 32 30 29 28 25 25 23 22 21 16 15 16 14 10 8 2 6 16
89 86 77 70 64 62 60 60 56 54 53 55 55 54 56 56 54 52 51 49 49 45 42 40 38 34 32 29 28 27 25 23 23 22 21 20 21 21 17 14 14 15 12 9 4 2 2
96 77 69 65 59 54 51 48 51 49 46 43 45 44 44 42 42 43 43 44 43 40 36 34 31 28 25 24 22 22 20 19 18 18 17 16 16 17 15 14 14 11 10 6 6 3 360
100 81 61 54 50 44 44 43 41 37 38 39 36 35 34 32 33 31 29 30 29 29 28 27 24 20 17 18 19 17 15 13 13 13 13 12 12 12 13 11 11 10 9 8 4 3 0
158 62 34 33 27 29 26 28 27 29 26 22 26 25 26 26 25 23 19 17 17 16 15 14 16 13 12 10 10 10 11 9 9 7 8 9 7 8 9 9 8 8 6 6 4 1 0
176 201 360 357 355 357 1 5 7 11 16 14 12 13 12 14 19 17 14 9 5 4 9 10 9 8 5 3 3 4 5 5 3 3 3 4 3 5 6 4 4 5 3 360 0 358 355
236 240 275 323 345 347 350 353 354 352 358 5 7 3 4 6 5 8 8 5 2 358 360 360 2 1 1 1 358 357 358 359 359 359 359 359 359 1 2 360 360 2 1 359 356 356 352
244 259 277 296 309 327 337 340 341 343 342 347 352 356 360 2 1 0 2 0 0 358 355 354 354 355 354 353 353 351 352 354 355 354 355 355 355 357 358 359 358 357 355 356 354 353 350
249 264 276 285 298 314 323 324 329 332 331 338 339 344 349 351 355 354 355 357 358 355 354 352 350 349 348 348 349 348 351 351 350 351 351 352 352 355 353 354 355 353 352 349 349 350 347
259 269 274 281 286 301 310 312 325 328 323 327 332 335 338 339 342 347 349 351 352 352 351 349 349 349 348 351 350 348 349 349 348 348 349 350 350 350 349 350 351 351 349 347 346 344 344
261 268 273 278 285 295 301 304 313 320 320 317 323 324 325 329 333 337 342 341 342 345 347 346 343 343 345 347 348 348 347 348 346 345 346 347 346 346 348 349 347 348 349 346 343 343 338
266 271 273 278 283 288 291 294 298 304 308 311 313 316 318 322 327 331 334 336 338 341 344 343 340 339 341 343 345 344 346 347 345 343 342 344 345 344 347 347 346 344 345 343 343 342 340
269 270 271 274 279 284 287 290 291 299 304 307 307 311 318 321 325 329 332 333 334 336 337 340 341 339 341 341 342 343 344 345 344 342 340 339 342 342 343 345 344 341 345 343 341 342 339
268 271 270 271 277 280 285 289 292 296 300 303 307 311 315 319 321 325 327 327 328 328 331 335 336 338 340 340 339 340 341 342 340 340 340 337 338 340 341 341 342 342 340 341 339 342 340
266 268 271 275 277 282 287 290 294 295 296 300 302 306 309 311 314 317 321 322 322 325 327 330 331 333 335 337 336 338 338 339 338 338 339 337 335 338 339 339 341 341 339 341 339 338 339
264 267 269 272 276 280 284 288 290 293 297 299 302 306 307 309 312 316 318 318 322 323 324 326 327 329 331 333 334 335 337 337 337 336 337 337 336 338 339 338 338 340 341 340 337 336 337
262 265 267 269 273 277 281 285 289 291 294 297 300 302 305 307 311 313 316 318 321 322 322 323 325 326 328 330 332 332 334 334 334 334 335 335 336 336 335 336 336 336 341 338 336 336 336
262 266 268 271 275 276 279 283 286 290 293 296 297 299 301 305 308 311 313 315 316 318 319 320 323 325 327 328 330 330 331 331 332 332 333 333 335 335 334 336 334 333 338 337 336 337 337
262 264 267 270 273 276 278 281 286 289 292 293 293 296 300 302 305 308 310 312 313 315 316 318 320 321 323 325 327 328 329 329 329 329 330 333 332 331 333 333 333 333 333 333 335 336 338
260 264 268 271 271 272 275 278 283 287 288 291 293 295 298 301 304 305 307 310 312 313 313 314 316 317 321 322 324 326 326 327 327 327 329 330 330 330 328 330 329 328 330 330 333 336 337
260 263 266 270 273 275 277 279 283 285 287 289 291 295 297 299 301 303 306 308 308 309 310 312 314 317 318 319 321 322 323 324 324 325 326 327 328 329 326 327 326 325 326 330 331 333 338
260 262 264 267 270 274 277 278 281 284 286 288 290 293 295 297 299 301 303 305 306 308 310 311 312 314 315 317 319 320 321 322 323 323 323 323 324 325 323 325 324 319 322 325 329 336 339
260 262 263 266 270 273 276 278 281 283 285 287 289 291 293 296 298 299 302 304 305 306 308 308 310 312 314 316 318 319 320 321 321 321 320 322 322 322 322 322 321 318 321 327 331 336 339
259 261 264 266 269 270 274 278 281 283 285 287 289 291 292 295 297 298 299 302 304 304 306 306 309 312 313 313 315 316 317 317 319 318 317 318 320 319 317 319 319 318 323 326 333 335 336
260 262 264 266 270 272 274 276 279 282 284 286 288 289 290 292 294 297 300 300 302 304 306 306 309 310 311 312 314 314 315 315 316 315 314 316 317 316 317 318 318 319 324 328 330 332 332
260 263 265 267 270 272 273 275 277 281 284 287 288 288 289 290 293 293 296 299 300 301 303 306 306 308 309 312 312 312 313 313 314 313 313 313 314 315 313 316 320 322 325 327 328 328 330
260 261 263 266 269 271 273 276 278 280 282 283 285 287 288 290 292 293 294 297 298 300 302 304 305 306 308 309 307 309 310 310 312 311 308 311 312 313 315 318 322 323 324 325 325 327 327
261 264 265 267 269 272 273 275 278 279 281 283 284 285 286 288 291 292 295 296 298 299 300 302 303 304 305 304 306 307 308 309 309 309 309 308 311 316 316 317 318 319 318 318 321 322 323